Regional Weather Roundup
Issued by NWS

Home | Current Version | Previous Version | Text Only | Print | Product List | Glossary On
Versions: 1 2 3 4 5 6 7 8 9 10 11 12 13 14 15 16 17 18 19 20 21 22 23 24 25 26 27 28 29 30 31 32 33 34 35 36 37 38 39 40 41 42 43 44 45 46 47 48 49 50
000
ASHW40 PHFO 301930
RWRHI

WEATHER ROUNDUP FOR HAWAII
NATIONAL WEATHER SERVICE HONOLULU HI
900 AM HST SAT MAY 30 2015

THIS IS AN AUTOMATED REPORT THAT HAS NOT BEEN QUALITY CONTROLLED.

NOTE..."FAIR" INDICATES FEW OR NO CLOUDS BELOW 12,000 FEET WITH NO
SIGNIFICANT WEATHER AND/OR OBSTRUCTIONS TO VISIBILITY.

* - THESE SITES REPORT LIMITED FIELDS

HIZ001>004-302000-
KAUAI-NIIHAU-

CITY           SKY/WX    TMP DP  RH WIND       PRES   REMARKS
LIHUE APT      MOSUNNY   79  68  69 N8        30.02R
PORT ALLEN*    NOT AVBL
POIPU*           N/A     81 N/A N/A N5G10       N/A
PRINCEVILLE*     N/A     73 N/A N/A MISG        N/A
KOKOLE POINT*  NOT AVBL
MOLOAA DAIRY*  NOT AVBL
WAIMEA HTS*    NOT AVBL
PUU OPAE*      NOT AVBL
PUU LUA*       NOT AVBL
MAKAHA RIDGE*    N/A     75  63  64 NW2         N/A
$$

HIZ005>011-302000-
OAHU-

CITY           SKY/WX    TMP DP  RH WIND       PRES   REMARKS
HONOLULU       MOSUNNY   81  65  58 E9        29.98R
KALAELOA       SUNNY     81  64  56 E5        30.00R
KANEOHE MCB    PTSUNNY  N/A N/A N/A NE6       29.98R
WHEELER FIELD  FAIR      77  64  64 E8        29.99R
BELLOWS*         N/A    N/A N/A N/A N3          N/A
KAHUKU*          N/A    N/A N/A N/A E7G14       N/A
WHEELER*       NOT AVBL
WAIANAE HARBOR NOT AVBL
DILLINGHAM*      N/A     86  64  48 MISG        N/A
KAHUKU TRN*      N/A     68  55  64 E7G14       N/A
KAWAILOA*        N/A     75  64  69 E5G10       N/A
KII*             N/A     77  70  78 E8          N/A
MAKUA RANGE*     N/A     81  63  54 W5          N/A
OAHU FOREST NW NOT AVBL
SCHOFIELD BRK*   N/A     61  50  67 MISG        N/A
SCHOFIELD S*   NOT AVBL
WAIANAE VLY*   NOT AVBL
KUAOKALA*      NOT AVBL
HONOULIUULI*   NOT AVBL
MOKUOLOE IS*     N/A    N/A N/A N/A MISG        N/A
PALEHUA*       NOT AVBL
WAIAWA PHB*    NOT AVBL
$$

HIZ012>013-302000-
MOLOKAI-

CITY           SKY/WX    TMP DP  RH WIND       PRES   REMARKS
MOLOKAI AIRPT  SUNNY     78  66  66 NE12G21   30.00R
KALAUPAPA      NOT AVBL
MAKAPULAPAI*   NOT AVBL
MOLOKAI 1*     NOT AVBL
PUU ALII*        N/A     65  60  83 CALM        N/A
$$

HIZ016-302000-
KAHOOLAWE-

CITY           SKY/WX    TMP DP  RH WIND       PRES   REMARKS
KAHOOLAWE*     NOT AVBL
HAKIOAWA*        N/A     76  65  70 MISG      30.42R
HONOKANAIA*      N/A     81  66  60 E10G16      N/A
KANELOA*         N/A     75  66  73 NE9       30.04R
KEALIALALO*      N/A     81  63  54 NE9G16    29.99S
LUA MAKIKA*    NOT AVBL
$$

HIZ014>015-302000-
LANAI-

CITY           SKY/WX    TMP DP  RH WIND       PRES   REMARKS
LANAI CITY     MOSUNNY   81  64  57 NE8       30.00S
LANAI 1*       NOT AVBL
$$

HIZ017>028-302000-
MAUI-

CITY           SKY/WX    TMP DP  RH WIND       PRES   REMARKS
KAHULUI        MOSUNNY   81  68  65 N12       30.00R
KAPALUA-W MAUI MOSUNNY   81  64  57 CALM      29.99
HANA AIRPORT   MOSUNNY   75  70  83 N6        30.03R
HANA*            N/A     77 N/A N/A N3          N/A
HALEAKALA SUMM   N/A     55  36  47 N2          N/A
MAALAEA BAY*   NOT AVBL
HALEAKALA*     NOT AVBL
KAUPO GAP*     NOT AVBL
KULA 1*          N/A     57  54  89 NW3         N/A
$$

HIZ023>026-302000-
BIG ISLAND OF HAWAII COAST AND LOWER SLOPES-

CITY           SKY/WX    TMP DP  RH WIND       PRES   REMARKS
KAILUA KONA    SUNNY     82  68  62 NW12      29.95S
HILO           MOSUNNY   79  70  74 N9        29.98R
HONOKAA*       NOT AVBL
KAWAIHAE MWT*    N/A     81 N/A N/A W7          N/A
KAWAIHAE*        N/A     79 N/A N/A W8          N/A
SOUTH POINT*     N/A     79 N/A N/A E5G10       N/A
UPOLU AIRPORT*   N/A    N/A N/A N/A NE13        N/A
KAMUELA*       MOCLDY    79  59  50 NE10      30.08S
HAKALAU*         N/A     62  58  86 NE3         N/A
KALOKO-HONOKO*   N/A     82  70  65 W9        29.96R
PALI 2*          N/A     73  63  68 SE3         N/A
KEALAKOMO*       N/A    N/A N/A N/A S5          N/A
KAUPULEHU*     NOT AVBL
KAPAPALA*        N/A     80  63  55 S3          N/A
LOWER KAHUKU*    N/A     72  59  64 SE2G8       N/A
PUHE CS*         N/A     79  68  69 W5G12       N/A
PUHO CS*         N/A     81  62  51 NW3G9       N/A
PTA KEAMUKU*     N/A     72  57  60 CALM        N/A
WAIKOLOA*      NOT AVBL
$$

HIZ027>028-302000-
BIG ISLAND OF HAWAII INTERIOR AND SUMMMITS-

CITY           SKY/WX    TMP DP  RH WIND       PRES   REMARKS
BRADSHAW FIELD SUNNY     67  45  45 W6        30.28S
MK VISITOR CEN NOT AVBL
MAUNA KEA*       N/A     46  25  42 S5          N/A
MAUNA LOA*       N/A    N/A N/A N/A MISG        N/A
MAUNA LOA 1*   NOT AVBL
PTA KIPUKA*      N/A     68  50  52 W6G12       N/A
PTA RANGE 17*    N/A     48  32  53 W3G10       N/A
PTA WEST*        N/A    N/A N/A N/A NW7         N/A
NENE CABIN*      N/A     61  46  59 SW7G14      N/A
AHUMOA*        NOT AVBL
PTA PORTABLE*  NOT AVBL
PUU MALI*        N/A     57  54  88 NE8         N/A
$$

HIC003-302000-
NORTHWEST ISLANDS-

CITY           SKY/WX    TMP DP  RH WIND       PRES   REMARKS
MIDWAY ISLAND  PTSUNNY  N/A N/A N/A E14       30.20R
MIDWAY NOS*    NOT AVBL
FRENCH FRIGATE NOT AVBL
$$

PHZ110>124-180-302000-
BUOY REPORTS

STATION/POSITION TIME  TEMP    WIND        PRES    WAVE   SWELL
                       AIR SEA DIR/SP/G            HT/PER HT/DIR
                 (UTC) (F)     (DEG/KT/KT) (MB)    (FT/S) (FT/D)
BUOY 51001       NOT AVBL
BUOY 51101       1900   74 75   70/ 14/ 14 1017.5R   4/15   3/160
BUOY 51100       NOT AVBL
BUOY 51002       1900   79 80   50/  8/ 10 1014.3R   4/15   3/220
BUOY 51003       1900   78 79  100/  8/ 10 1015.0R   4/15   3
BUOY 51004       1811   76 80  350/  8/ 10 1014.4R   6/ 8   5/100
BARBERS PT BUOY  NOT AVBL
WAIMEA BAY BUOY  1900      77                N/A     3/ 9
KAILUA BAY BUOY  1900      77                N/A     3/ 9   2/130
LANAI BUOY       NOT AVBL
BARBERS PT 2     1900      78                N/A     3/13   2/180
PAUWELA MAUI     1900      77                N/A     3/ 9   2/ 20
HILO             1900      78                N/A     4/ 9   2/130
KANEOHE BAY BUOY 1900      78                N/A     3/ 9
HANALEI KAUAI    1900      78                N/A     4/ 9   2/320
KAHULUI HARBOR   1900   76 79  360/  6/  9 1015.5R
HONOLULU HARBOR  1900   76 77  240/  7/  8 1015.4R
KILO NALU        NOT AVBL
HILO HARBOR      1900   76 77   10/ 11/ 13 1014.9R
MOKUOLOE         1900      78              1015.8R
NAWILIWILI       1900   76 79   50/  5/  7 1016.1R
WHOTS BUOY       NOT AVBL
BUOY 51028       NOT AVBL
$$

......................KEY........................................
  SKY/WX - SKY CONDITIONS/PRESENT WEATHER
  TMP    - TEMPERATURE IN FAHRENHEIT
  DWPT   - DEWPOINT IN FAHRENHEIT
  RH     - RELATIVE HUMIDITY IN PERCENT
  WIND   - DIRECTION AND SPEED /MPH FOR ISLANDS...KTS FOR BUOYS/
  PRES   - MEAN SEA LEVEL PRESSURE IN INCHES OF HG
  VSB    - VISIBILITY IN MILES
  HX     - HEAT INDEX
  WCI    - WIND CHILL INDEX
  VRB    - VARIABLE WIND DIRECTION
  N/A    - NOT AVAILABLE


USA.gov is the U.S. government's official web portal to all federal, state and local government web resources and services.